| time (UTC) | temp F | wind direction | speed MPH | gust MPH | rain 1hr in | rain 24hr in | rain mn in | humidity % | barometer mb |
| 20260831140415 | 62 | 57 | 5.0 | 10.0 | 0.00 | 0.00 | 0.00 | 64 | 1017.2 |
| 20260831135909 | 62 | 67 | 4.0 | 9.0 | 0.00 | 0.00 | 0.00 | 65 | 1017.0 |
| 20260831135409 | 61 | 43 | 5.0 | 8.0 | 0.00 | 0.00 | 0.00 | 66 | 1017.1 |
| 20260831134903 | 61 | 64 | 3.0 | 9.0 | 0.00 | 0.00 | 0.00 | 66 | 1017.0 |
| 20260831134359 | 61 | 65 | 5.0 | 9.0 | 0.00 | 0.00 | 0.00 | 66 | 1017.0 |
| 20260831133859 | 61 | 40 | 5.0 | 8.0 | 0.00 | 0.00 | 0.00 | 66 | 1017.4 |
| 20260831133359 | 60 | 62 | 3.0 | 4.0 | 0.00 | 0.00 | 0.00 | 67 | 1017.0 |
| 20260831132855 | 58 | 64 | 6.0 | 6.0 | 0.00 | 0.00 | 0.00 | 69 | 1016.9 |
| 20260831132345 | 58 | 131 | 2.0 | 2.0 | 0.00 | 0.00 | 0.00 | 69 | 1016.5 |
| 20260831131844 | 58 | 323 | 2.0 | 3.0 | 0.00 | 0.00 | 0.00 | 69 | 1016.6 |
| 20260831131340 | 60 | 271 | 2.0 | 2.0 | 0.00 | 0.00 | 0.00 | 66 | 1016.6 |
| 20260831130835 | 61 | 353 | 2.0 | 3.0 | 0.00 | 0.00 | 0.00 | 63 | 1016.5 |
| 20260831130331 | 61 | 15 | 3.0 | 10.0 | 0.00 | 0.00 | 0.00 | 62 | 1016.1 |
| 20260831125830 | 62 | 33 | 3.0 | 8.0 | 0.00 | 0.00 | 0.00 | 62 | 1016.3 |
| 20260831125325 | 62 | 32 | 4.0 | 11.0 | 0.00 | 0.00 | 0.00 | 62 | 1015.9 |
| 20260831124825 | 61 | 23 | 9.0 | 10.0 | 0.00 | 0.00 | 0.00 | 62 | 1015.8 |
| 20260831124322 | 60 | 17 | 5.0 | 9.0 | 0.00 | 0.00 | 0.00 | 63 | 1015.7 |
| 20260831123821 | 61 | 34 | 4.0 | 7.0 | 0.00 | 0.00 | 0.00 | 63 | 1015.9 |
| 20260831123320 | 61 | 33 | 4.0 | 9.0 | 0.00 | 0.00 | 0.00 | 63 | 1015.7 |
| 20260831122815 | 60 | 71 | 4.0 | 8.0 | 0.00 | 0.00 | 0.00 | 63 | 1015.6 |
| 20260831122311 | 60 | 37 | 6.0 | 8.0 | 0.00 | 0.00 | 0.00 | 63 | 1015.8 |
| 20260831121811 | 60 | 41 | 5.0 | 12.0 | 0.00 | 0.00 | 0.00 | 63 | 1015.8 |
| 20260831121307 | 60 | 13 | 5.0 | 8.0 | 0.00 | 0.00 | 0.00 | 63 | 1015.5 |
| 20260831120802 | 60 | 47 | 4.0 | 7.0 | 0.00 | 0.00 | 0.00 | 63 | 1015.7 |
| 20260831120256 | 60 | 44 | 6.0 | 11.0 | 0.00 | 0.00 | 0.00 | 64 | 1015.5 |
| 20260831115752 | 60 | 57 | 6.0 | 11.0 | 0.00 | 0.00 | 0.00 | 63 | 1015.5 |
| 20260831115248 | 60 | 32 | 5.0 | 12.0 | 0.00 | 0.00 | 0.00 | 62 | 1015.6 |
| 20260831114747 | 60 | 35 | 8.0 | 13.0 | 0.00 | 0.00 | 0.00 | 62 | 1015.7 |
| 20260831114246 | 61 | 36 | 6.0 | 10.0 | 0.00 | 0.00 | 0.00 | 62 | 1015.7 |
| 20260831113742 | 61 | 44 | 4.0 | 6.0 | 0.00 | 0.00 | 0.00 | 61 | 1015.7 |
| 20260831113237 | 61 | 63 | 5.0 | 9.0 | 0.00 | 0.00 | 0.00 | 61 | 1015.6 |
| 20260831112736 | 61 | 40 | 6.0 | 8.0 | 0.00 | 0.00 | 0.00 | 61 | 1015.7 |
| 20260831112232 | 61 | 31 | 6.0 | 9.0 | 0.00 | 0.00 | 0.00 | 61 | 1015.7 |
| 20260831111727 | 61 | 40 | 6.0 | 10.0 | 0.00 | 0.00 | 0.00 | 60 | 1015.5 |
| 20260831111223 | 61 | 38 | 5.0 | 9.0 | 0.00 | 0.00 | 0.00 | 60 | 1015.7 |
| 20260831110719 | 61 | 61 | 5.0 | 6.0 | 0.00 | 0.00 | 0.00 | 60 | 1015.7 |
| 20260831110214 | 62 | 71 | 5.0 | 6.0 | 0.00 | 0.00 | 0.00 | 60 | 1015.6 |
| 20260831105712 | 62 | 62 | 6.0 | 9.0 | 0.00 | 0.00 | 0.00 | 59 | 1015.8 |
| 20260831105208 | 61 | 29 | 7.0 | 10.0 | 0.00 | 0.00 | 0.00 | 60 | 1015.9 |
| 20260831104703 | 61 | 43 | 5.0 | 6.0 | 0.00 | 0.00 | 0.00 | 61 | 1015.8 |
| 20260831104200 | 61 | 69 | 4.0 | 6.0 | 0.00 | 0.00 | 0.00 | 61 | 1015.8 |
| 20260831103659 | 61 | 67 | 4.0 | 8.0 | 0.00 | 0.00 | 0.00 | 60 | 1015.8 |
| 20260831103155 | 62 | 51 | 7.0 | 9.0 | 0.00 | 0.00 | 0.00 | 59 | 1015.9 |
| 20260831102654 | 62 | 35 | 4.0 | 5.0 | 0.00 | 0.00 | 0.00 | 59 | 1015.9 |
| 20260831102149 | 61 | 40 | 6.0 | 7.0 | 0.00 | 0.00 | 0.00 | 59 | 1015.8 |
| 20260831101645 | 61 | 22 | 5.0 | 7.0 | 0.00 | 0.00 | 0.00 | 60 | 1015.8 |
| 20260831101141 | 61 | 22 | 8.0 | 11.0 | 0.00 | 0.00 | 0.00 | 60 | 1015.7 |
| 20260831100636 | 61 | 49 | 8.0 | 11.0 | 0.00 | 0.00 | 0.00 | 59 | 1015.8 |
| 20260831100132 | 61 | 26 | 4.0 | 11.0 | 0.00 | 0.00 | 0.00 | 60 | 1015.5 |
| 20260831095630 | 61 | 47 | 7.0 | 11.0 | 0.00 | 0.00 | 0.00 | 59 | 1015.6 |
| 20260831095125 | 61 | 43 | 6.0 | 11.0 | 0.00 | 0.00 | 0.00 | 59 | 1015.8 |
| 20260831094620 | 61 | 39 | 8.0 | 12.0 | 0.00 | 0.00 | 0.00 | 59 | 1015.8 |
| 20260831094117 | 61 | 66 | 9.0 | 11.0 | 0.00 | 0.00 | 0.00 | 59 | 1015.8 |
| 20260831093612 | 61 | 18 | 5.0 | 8.0 | 0.00 | 0.00 | 0.00 | 59 | 1015.7 |
| 20260831093108 | 61 | 36 | 4.0 | 10.0 | 0.00 | 0.00 | 0.00 | 60 | 1015.9 |
| 20260831092604 | 60 | 13 | 4.0 | 6.0 | 0.00 | 0.00 | 0.00 | 61 | 1015.6 |
| 20260831092059 | 61 | 47 | 5.0 | 8.0 | 0.00 | 0.00 | 0.00 | 60 | 1015.7 |
| 20260831091559 | 61 | 21 | 3.0 | 9.0 | 0.00 | 0.00 | 0.00 | 59 | 1015.5 |
| 20260831091054 | 61 | 47 | 3.0 | 6.0 | 0.00 | 0.00 | 0.00 | 59 | 1015.5 |
| 20260831090549 | 61 | 46 | 4.0 | 7.0 | 0.00 | 0.00 | 0.00 | 59 | 1015.6 |
| 20260831090046 | 61 | 35 | 3.0 | 11.0 | 0.00 | 0.00 | 0.00 | 60 | 1015.6 |
| 20260831085541 | 60 | 62 | 6.0 | 9.0 | 0.00 | 0.00 | 0.00 | 61 | 1015.5 |
| 20260831085036 | 61 | 60 | 4.0 | 10.0 | 0.00 | 0.00 | 0.00 | 60 | 1015.4 |
| 20260831084532 | 62 | 41 | 5.0 | 10.0 | 0.00 | 0.00 | 0.00 | 58 | 1015.2 |
| 20260831084028 | 62 | 50 | 6.0 | 15.0 | 0.00 | 0.00 | 0.00 | 59 | 1015.7 |
| 20260831083524 | 62 | 32 | 6.0 | 10.0 | 0.00 | 0.00 | 0.00 | 58 | 1015.5 |
| 20260831083018 | 62 | 37 | 4.0 | 11.0 | 0.00 | 0.00 | 0.00 | 58 | 1015.5 |
| 20260831082517 | 61 | 16 | 3.0 | 9.0 | 0.00 | 0.00 | 0.00 | 59 | 1015.6 |
| 20260831082012 | 62 | 42 | 6.0 | 10.0 | 0.00 | 0.00 | 0.00 | 57 | 1015.7 |
| 20260831081508 | 62 | 28 | 5.0 | 11.0 | 0.00 | 0.00 | 0.00 | 56 | 1015.5 |
| 20260831081004 | 61 | 17 | 3.0 | 6.0 | 0.00 | 0.00 | 0.00 | 60 | 1015.7 |
| 20260831080504 | 61 | 341 | 2.0 | 7.0 | 0.00 | 0.00 | 0.00 | 59 | 1015.5 |
| 20260831075959 | 62 | 36 | 5.0 | 9.0 | 0.00 | 0.00 | 0.00 | 57 | 1015.7 |
| 20260831075455 | 62 | 38 | 4.0 | 8.0 | 0.00 | 0.00 | 0.00 | 57 | 1015.4 |
| 20260831074951 | 62 | 51 | 4.0 | 5.0 | 0.00 | 0.00 | 0.00 | 58 | 1015.4 |
| 20260831074450 | 62 | 41 | 5.0 | 6.0 | 0.00 | 0.00 | 0.00 | 58 | 1015.6 |
| 20260831073944 | 62 | 37 | 7.0 | 8.0 | 0.00 | 0.00 | 0.00 | 58 | 1015.2 |
| 20260831073439 | 62 | 47 | 4.0 | 9.0 | 0.00 | 0.00 | 0.00 | 58 | 1015.5 |
| 20260831072938 | 62 | 42 | 4.0 | 7.0 | 0.00 | 0.00 | 0.00 | 57 | 1015.5 |
| 20260831072434 | 63 | 52 | 7.0 | 9.0 | 0.00 | 0.00 | 0.00 | 57 | 1015.5 |
| 20260831071931 | 63 | 40 | 6.0 | 12.0 | 0.00 | 0.00 | 0.00 | 56 | 1015.2 |
| 20260831071430 | 63 | 53 | 11.0 | 14.0 | 0.00 | 0.00 | 0.00 | 56 | 1015.5 |
| 20260831070929 | 64 | 65 | 6.0 | 13.0 | 0.00 | 0.00 | 0.00 | 55 | 1015.6 |
| 20260831070424 | 63 | 50 | 8.0 | 9.0 | 0.00 | 0.00 | 0.00 | 56 | 1015.4 |
| 20260831065923 | 63 | 20 | 4.0 | 5.0 | 0.00 | 0.00 | 0.00 | 56 | 1015.6 |
| 20260831065420 | 64 | 30 | 3.0 | 6.0 | 0.00 | 0.00 | 0.00 | 55 | 1015.7 |
| 20260831064915 | 63 | 13 | 4.0 | 8.0 | 0.00 | 0.00 | 0.00 | 56 | 1015.5 |
| 20260831064410 | 64 | 42 | 4.0 | 7.0 | 0.00 | 0.00 | 0.00 | 55 | 1015.2 |
| 20260831063906 | 64 | 41 | 7.0 | 10.0 | 0.00 | 0.00 | 0.00 | 55 | 1015.4 |
| 20260831063401 | 63 | 33 | 6.0 | 8.0 | 0.00 | 0.00 | 0.00 | 56 | 1015.1 |
| 20260831062856 | 63 | 39 | 3.0 | 7.0 | 0.00 | 0.00 | 0.00 | 57 | 1015.1 |
| 20260831062351 | 63 | 307 | 3.0 | 8.0 | 0.00 | 0.00 | 0.00 | 57 | 1015.2 |
| 20260831061849 | 64 | 31 | 3.0 | 7.0 | 0.00 | 0.00 | 0.00 | 56 | 1015.4 |
| 20260831061343 | 64 | 6 | 4.0 | 8.0 | 0.00 | 0.00 | 0.00 | 56 | 1015.4 |
| 20260831060840 | 64 | 41 | 4.0 | 10.0 | 0.00 | 0.00 | 0.00 | 56 | 1015.6 |
| 20260831060339 | 64 | 50 | 7.0 | 10.0 | 0.00 | 0.00 | 0.00 | 55 | 1015.4 |
| 20260831055839 | 64 | 83 | 5.0 | 10.0 | 0.00 | 0.01 | 0.01 | 55 | 1015.2 |
| 20260831055334 | 64 | 1 | 5.0 | 10.0 | 0.00 | 0.01 | 0.01 | 56 | 1015.7 |
| 20260831054829 | 64 | 43 | 5.0 | 7.0 | 0.00 | 0.01 | 0.01 | 56 | 1015.4 |
| 20260831054325 | 64 | 92 | 4.0 | 11.0 | 0.00 | 0.01 | 0.01 | 55 | 1015.6 |
| 20260831053823 | 65 | 62 | 3.0 | 9.0 | 0.00 | 0.01 | 0.01 | 54 | 1015.8 |
| 20260831053322 | 65 | 43 | 6.0 | 11.0 | 0.00 | 0.01 | 0.01 | 54 | 1015.6 |
| 20260831052817 | 65 | 48 | 5.0 | 9.0 | 0.00 | 0.01 | 0.01 | 54 | 1015.8 |
| 20260831052316 | 65 | 11 | 4.0 | 8.0 | 0.00 | 0.01 | 0.01 | 54 | 1015.6 |
| 20260831051814 | 65 | 41 | 6.0 | 14.0 | 0.00 | 0.01 | 0.01 | 55 | 1015.7 |
| 20260831051313 | 65 | 41 | 6.0 | 7.0 | 0.00 | 0.01 | 0.01 | 54 | 1015.7 |
| 20260831050808 | 66 | 39 | 4.0 | 8.0 | 0.00 | 0.01 | 0.01 | 54 | 1015.4 |
| 20260831050307 | 66 | 27 | 3.0 | 6.0 | 0.00 | 0.01 | 0.01 | 53 | 1015.4 |
| 20260831045802 | 66 | 44 | 4.0 | 6.0 | 0.00 | 0.01 | 0.01 | 53 | 1015.6 |
| 20260831045256 | 66 | 16 | 3.0 | 6.0 | 0.00 | 0.01 | 0.01 | 53 | 1015.5 |
| 20260831044751 | 66 | 29 | 2.0 | 7.0 | 0.00 | 0.01 | 0.01 | 53 | 1015.5 |
| 20260831044246 | 66 | 24 | 1.0 | 6.0 | 0.00 | 0.01 | 0.01 | 53 | 1015.6 |
| 20260831043742 | 66 | 39 | 6.0 | 7.0 | 0.00 | 0.01 | 0.01 | 52 | 1015.6 |
| 20260831043237 | 67 | 0 | 3.0 | 5.0 | 0.00 | 0.01 | 0.01 | 52 | 1015.2 |
| 20260831042736 | 67 | 36 | 2.0 | 4.0 | 0.00 | 0.01 | 0.01 | 53 | 1015.5 |
| 20260831042231 | 67 | 36 | 4.0 | 7.0 | 0.00 | 0.01 | 0.01 | 52 | 1015.4 |
| 20260831041726 | 67 | 87 | 4.0 | 6.0 | 0.00 | 0.01 | 0.01 | 53 | 1015.5 |
| 20260831041220 | 68 | 29 | 4.0 | 11.0 | 0.00 | 0.01 | 0.01 | 52 | 1015.6 |
| 20260831040715 | 67 | 30 | 0.0 | 4.0 | 0.00 | 0.01 | 0.01 | 52 | 1015.5 |
| 20260831040214 | 67 | 94 | 2.0 | 5.0 | 0.00 | 0.01 | 0.01 | 52 | 1015.2 |
| 20260831035713 | 68 | 20 | 2.0 | 4.0 | 0.00 | 0.01 | 0.01 | 51 | 1015.4 |
| 20260831035213 | 68 | 4 | 4.0 | 8.0 | 0.00 | 0.01 | 0.01 | 52 | 1015.2 |
| 20260831034712 | 68 | 59 | 2.0 | 6.0 | 0.00 | 0.01 | 0.01 | 51 | 1015.1 |
| 20260831034208 | 68 | 44 | 6.0 | 9.0 | 0.00 | 0.01 | 0.01 | 50 | 1015.0 |
| 20260831033703 | 68 | 31 | 3.0 | 4.0 | 0.00 | 0.01 | 0.01 | 51 | 1014.8 |
| 20260831033202 | 68 | 27 | 4.0 | 5.0 | 0.00 | 0.01 | 0.01 | 51 | 1014.9 |
| 20260831032657 | 68 | 27 | 4.0 | 6.0 | 0.00 | 0.01 | 0.01 | 51 | 1014.9 |
| 20260831032153 | 68 | 44 | 4.0 | 7.0 | 0.00 | 0.01 | 0.01 | 50 | 1014.9 |
| 20260831031653 | 68 | 46 | 3.0 | 5.0 | 0.00 | 0.01 | 0.01 | 51 | 1014.5 |
| 20260831031153 | 67 | 28 | 2.0 | 3.0 | 0.00 | 0.01 | 0.01 | 52 | 1014.8 |
| 20260831030652 | 68 | 357 | 1.0 | 3.0 | 0.00 | 0.01 | 0.01 | 52 | 1014.9 |
| 20260831030151 | 67 | 40 | 2.0 | 3.0 | 0.00 | 0.01 | 0.01 | 54 | 1014.5 |
| 20260831025649 | 68 | 334 | 2.0 | 3.0 | 0.00 | 0.01 | 0.01 | 54 | 1014.5 |
| 20260831025144 | 68 | 42 | 2.0 | 2.0 | 0.00 | 0.01 | 0.01 | 54 | 1014.7 |
| 20260831024641 | 68 | 29 | 1.0 | 2.0 | 0.00 | 0.01 | 0.01 | 53 | 1014.7 |
| 20260831024139 | 69 | 22 | 2.0 | 2.0 | 0.00 | 0.01 | 0.01 | 52 | 1014.7 |
| 20260831023638 | 69 | 38 | 2.0 | 2.0 | 0.00 | 0.01 | 0.01 | 51 | 1014.4 |
| 20260831023137 | 70 | 26 | 2.0 | 2.0 | 0.00 | 0.01 | 0.01 | 50 | 1014.3 |
| 20260831022632 | 70 | 353 | 2.0 | 2.0 | 0.00 | 0.01 | 0.01 | 48 | 1014.3 |
| 20260831022127 | 71 | 3 | 2.0 | 2.0 | 0.00 | 0.01 | 0.01 | 49 | 1014.3 |
| 20260831021626 | 72 | 12 | 2.0 | 2.0 | 0.00 | 0.01 | 0.01 | 45 | 1014.1 |
| 20260831021122 | 73 | 59 | 0.0 | 1.0 | 0.00 | 0.01 | 0.01 | 45 | 1014.1 |
| 20260831020618 | 73 | 344 | 2.0 | 2.0 | 0.00 | 0.01 | 0.01 | 43 | 1014.2 |
| 20260831020113 | 74 | 5 | 1.0 | 1.0 | 0.00 | 0.01 | 0.01 | 43 | 1013.9 |
| 20260831015609 | 75 | 300 | 1.0 | 2.0 | 0.00 | 0.01 | 0.01 | 41 | 1013.9 |
| 20260831015108 | 75 | 326 | 2.0 | 3.0 | 0.00 | 0.01 | 0.01 | 41 | 1013.8 |
| 20260831014603 | 75 | 311 | 1.0 | 3.0 | 0.00 | 0.01 | 0.01 | 41 | 1013.7 |
| 20260831014058 | 76 | 5 | 1.0 | 4.0 | 0.00 | 0.01 | 0.01 | 41 | 1013.7 |
| 20260831013555 | 77 | 285 | 0.0 | 4.0 | 0.00 | 0.01 | 0.01 | 40 | 1013.7 |
| 20260831013054 | 77 | 301 | 0.0 | 5.0 | 0.00 | 0.01 | 0.01 | 40 | 1013.8 |
| 20260831012549 | 77 | 321 | 2.0 | 3.0 | 0.00 | 0.01 | 0.01 | 39 | 1013.6 |
| 20260831012044 | 78 | 281 | 1.0 | 2.0 | 0.00 | 0.01 | 0.01 | 39 | 1013.7 |
| 20260831011543 | 79 | 262 | 2.0 | 5.0 | 0.00 | 0.01 | 0.01 | 37 | 1013.8 |
| 20260831011038 | 78 | 280 | 2.0 | 4.0 | 0.00 | 0.01 | 0.01 | 38 | 1013.7 |
| 20260831010534 | 79 | 257 | 2.0 | 3.0 | 0.00 | 0.01 | 0.01 | 39 | 1013.9 |
| 20260831010030 | 79 | 294 | 4.0 | 4.0 | 0.00 | 0.01 | 0.01 | 38 | 1013.8 |
| 20260831005525 | 79 | 244 | 1.0 | 3.0 | 0.00 | 0.01 | 0.01 | 38 | 1014.1 |
| 20260831005024 | 80 | 260 | 2.0 | 8.0 | 0.00 | 0.01 | 0.01 | 39 | 1013.7 |
| 20260831004520 | 80 | 320 | 2.0 | 5.0 | 0.00 | 0.01 | 0.01 | 38 | 1013.7 |
| 20260831004016 | 80 | 285 | 1.0 | 5.0 | 0.00 | 0.01 | 0.01 | 39 | 1013.8 |
| 20260831003512 | 80 | 272 | 2.0 | 6.0 | 0.00 | 0.01 | 0.01 | 37 | 1013.7 |
| 20260831003007 | 81 | 300 | 2.0 | 5.0 | 0.00 | 0.01 | 0.01 | 37 | 1013.9 |
| 20260831002506 | 81 | 280 | 0.0 | 5.0 | 0.00 | 0.01 | 0.01 | 37 | 1014.1 |
| 20260831002001 | 82 | 287 | 2.0 | 4.0 | 0.00 | 0.01 | 0.01 | 36 | 1013.7 |
| 20260831001456 | 81 | 289 | 2.0 | 4.0 | 0.00 | 0.01 | 0.01 | 36 | 1013.7 |
| 20260831000953 | 82 | 258 | 4.0 | 5.0 | 0.00 | 0.01 | 0.01 | 35 | 1013.9 |
| 20260831000449 | 82 | 331 | 2.0 | 6.0 | 0.00 | 0.01 | 0.01 | 35 | 1013.8 |
| 20260830235946 | 82 | 294 | 4.0 | 6.0 | 0.00 | 0.01 | 0.01 | 36 | 1014.1 |
| 20260830235442 | 83 | 231 | 3.0 | 3.0 | 0.00 | 0.01 | 0.01 | 37 | 1013.8 |
| 20260830234937 | 83 | 288 | 2.0 | 4.0 | 0.00 | 0.01 | 0.01 | 35 | 1014.1 |
| 20260830234432 | 83 | 291 | 4.0 | 5.0 | 0.00 | 0.01 | 0.01 | 35 | 1014.1 |
| 20260830233928 | 84 | 294 | 4.0 | 6.0 | 0.00 | 0.01 | 0.01 | 34 | 1013.7 |
| 20260830233423 | 84 | 227 | 2.0 | 3.0 | 0.00 | 0.01 | 0.01 | 34 | 1013.9 |
| 20260830232919 | 84 | 296 | 3.0 | 8.0 | 0.00 | 0.01 | 0.01 | 34 | 1013.9 |
| 20260830232415 | 84 | 311 | 2.0 | 4.0 | 0.00 | 0.01 | 0.01 | 34 | 1013.9 |
| 20260830231912 | 83 | 290 | 4.0 | 6.0 | 0.00 | 0.01 | 0.01 | 35 | 1013.8 |
| 20260830231406 | 83 | 267 | 3.0 | 8.0 | 0.00 | 0.01 | 0.01 | 34 | 1014.1 |
| 20260830230905 | 83 | 224 | 7.0 | 10.0 | 0.00 | 0.01 | 0.01 | 34 | 1013.7 |
| 20260830230401 | 84 | 302 | 6.0 | 7.0 | 0.00 | 0.01 | 0.01 | 35 | 1013.7 |
| 20260830225900 | 84 | 258 | 4.0 | 6.0 | 0.00 | 0.01 | 0.01 | 33 | 1013.8 |
| 20260830225355 | 84 | 287 | 3.0 | 12.0 | 0.00 | 0.01 | 0.01 | 35 | 1013.7 |
| 20260830224850 | 84 | 296 | 5.0 | 14.0 | 0.00 | 0.01 | 0.01 | 34 | 1013.6 |
| 20260830224344 | 83 | 326 | 2.0 | 6.0 | 0.00 | 0.01 | 0.01 | 35 | 1013.6 |
| 20260830223841 | 83 | 293 | 5.0 | 5.0 | 0.00 | 0.01 | 0.01 | 36 | 1013.9 |
| 20260830223337 | 82 | 238 | 9.0 | 9.0 | 0.00 | 0.01 | 0.01 | 35 | 1013.8 |
| 20260830222836 | 83 | 297 | 7.0 | 9.0 | 0.00 | 0.01 | 0.01 | 36 | 1013.6 |
| 20260830222332 | 82 | 299 | 2.0 | 3.0 | 0.00 | 0.01 | 0.01 | 40 | 1013.9 |
| 20260830221827 | 81 | 286 | 2.0 | 3.0 | 0.00 | 0.01 | 0.01 | 41 | 1014.2 |
| 20260830221324 | 82 | 188 | 5.0 | 14.0 | 0.00 | 0.01 | 0.01 | 35 | 1014.1 |
| 20260830220824 | 82 | 224 | 3.0 | 6.0 | 0.00 | 0.01 | 0.01 | 37 | 1014.2 |
| 20260830220323 | 81 | 206 | 2.0 | 11.0 | 0.00 | 0.01 | 0.01 | 36 | 1014.2 |
| 20260830215821 | 81 | 288 | 9.0 | 11.0 | 0.00 | 0.01 | 0.01 | 36 | 1014.1 |
| 20260830215316 | 81 | 197 | 4.0 | 6.0 | 0.00 | 0.01 | 0.01 | 37 | 1014.3 |
| 20260830214812 | 80 | 175 | 3.0 | 8.0 | 0.00 | 0.01 | 0.01 | 39 | 1014.1 |
| 20260830214307 | 80 | 247 | 4.0 | 6.0 | 0.00 | 0.01 | 0.01 | 41 | 1014.4 |
| 20260830213806 | 80 | 234 | 4.0 | 8.0 | 0.02 | 0.01 | 0.01 | 43 | 1014.3 |
| 20260830213301 | 79 | 275 | 2.0 | 9.0 | 0.02 | 0.01 | 0.01 | 50 | 1014.7 |
| 20260830212757 | 82 | 285 | 4.0 | 6.0 | 0.00 | 0.01 | 0.01 | 39 | 1014.4 |
| 20260830212253 | 82 | 292 | 4.0 | 5.0 | 0.00 | 0.01 | 0.01 | 35 | 1014.4 |
| 20260830211752 | 85 | 257 | 5.0 | 9.0 | 0.00 | 0.01 | 0.01 | 35 | 1014.5 |
| 20260830211251 | 85 | 255 | 2.0 | 11.0 | 0.00 | 0.01 | 0.01 | 34 | 1014.7 |
| 20260830210747 | 83 | 260 | 3.0 | 10.0 | 0.00 | 0.01 | 0.01 | 34 | 1014.7 |
| 20260830210246 | 83 | 239 | 2.0 | 10.0 | 0.00 | 0.01 | 0.01 | 36 | 1014.7 |
| 20260830205743 | 84 | 289 | 4.0 | 9.0 | 0.00 | 0.01 | 0.01 | 34 | 1014.8 |
| 20260830205238 | 87 | 306 | 3.0 | 6.0 | 0.00 | 0.01 | 0.01 | 35 | 1014.8 |
| 20260830204733 | 86 | 294 | 2.0 | 10.0 | 0.00 | 0.01 | 0.01 | 34 | 1014.7 |
| 20260830204232 | 84 | 311 | 3.0 | 7.0 | 0.00 | 0.01 | 0.01 | 35 | 1014.9 |
| 20260830203729 | 81 | 232 | 7.0 | 8.0 | 0.00 | 0.01 | 0.01 | 35 | 1014.9 |
| 20260830203224 | 84 | 223 | 5.0 | 11.0 | 0.00 | 0.01 | 0.01 | 35 | 1014.9 |
| 20260830202723 | 84 | 308 | 4.0 | 8.0 | 0.00 | 0.01 | 0.01 | 36 | 1014.7 |
| 20260830202219 | 81 | 186 | 4.0 | 5.0 | 0.00 | 0.01 | 0.01 | 38 | 1014.8 |
| 20260830201718 | 80 | 268 | 4.0 | 8.0 | 0.00 | 0.01 | 0.01 | 39 | 1014.9 |
| 20260830201214 | 84 | 291 | 3.0 | 6.0 | 0.00 | 0.01 | 0.01 | 40 | 1014.9 |
| 20260830200709 | 82 | 289 | 4.0 | 6.0 | 0.00 | 0.01 | 0.01 | 46 | 1015.2 |
| 20260830200209 | 79 | 341 | 2.0 | 6.0 | 0.00 | 0.01 | 0.01 | 45 | 1015.4 |
| 20260830195704 | 76 | 289 | 4.0 | 5.0 | 0.00 | 0.01 | 0.01 | 52 | 1015.1 |
| 20260830195202 | 76 | 290 | 2.0 | 5.0 | 0.00 | 0.01 | 0.01 | 59 | 1015.2 |
| 20260830194701 | 75 | 277 | 2.0 | 4.0 | 0.05 | 0.01 | 0.01 | 58 | 1015.4 |
| 20260830194201 | 73 | 287 | 3.0 | 7.0 | 0.05 | 0.01 | 0.01 | 62 | 1015.6 |
| 20260830193656 | 78 | 281 | 4.0 | 10.0 | 0.00 | 0.00 | 0.00 | 51 | 1015.2 |
| 20260830193156 | 84 | 289 | 3.0 | 9.0 | 0.00 | 0.00 | 0.00 | 41 | 1015.5 |
| 20260830192651 | 85 | 251 | 6.0 | 11.0 | 0.00 | 0.00 | 0.00 | 36 | 1015.1 |
| 20260830192146 | 87 | 309 | 4.0 | 8.0 | 0.00 | 0.00 | 0.00 | 36 | 1015.0 |
| 20260830191637 | 87 | 247 | 4.0 | 13.0 | 0.00 | 0.00 | 0.00 | 34 | 1014.8 |
| 20260830191131 | 87 | 227 | 6.0 | 8.0 | 0.00 | 0.00 | 0.00 | 34 | 1015.4 |
| 20260830190627 | 85 | 279 | 3.0 | 11.0 | 0.00 | 0.00 | 0.00 | 37 | 1015.5 |
| 20260830190122 | 85 | 182 | 4.0 | 7.0 | 0.00 | 0.00 | 0.00 | 38 | 1015.5 |
| 20260830185620 | 84 | 326 | 3.0 | 13.0 | 0.00 | 0.00 | 0.00 | 37 | 1015.7 |
| 20260830185111 | 85 | 282 | 2.0 | 12.0 | 0.00 | 0.00 | 0.00 | 37 | 1015.5 |
| 20260830184609 | 84 | 243 | 6.0 | 8.0 | 0.00 | 0.00 | 0.00 | 38 | 1015.7 |
| 20260830184104 | 82 | 233 | 6.0 | 14.0 | 0.00 | 0.00 | 0.00 | 39 | 1015.8 |
| 20260830183559 | 84 | 313 | 2.0 | 6.0 | 0.00 | 0.00 | 0.00 | 38 | 1015.9 |
| 20260830183055 | 84 | 260 | 4.0 | 11.0 | 0.00 | 0.00 | 0.00 | 40 | 1016.1 |
| 20260830182550 | 84 | 292 | 3.0 | 11.0 | 0.00 | 0.00 | 0.00 | 39 | 1015.9 |
| 20260830182046 | 84 | 205 | 10.0 | 11.0 | 0.00 | 0.00 | 0.00 | 41 | 1015.8 |
| 20260830181542 | 84 | 271 | 5.0 | 5.0 | 0.00 | 0.00 | 0.00 | 43 | 1016.3 |
| 20260830181041 | 84 | 211 | 4.0 | 5.0 | 0.00 | 0.00 | 0.00 | 42 | 1016.3 |
| 20260830180541 | 80 | 216 | 8.0 | 9.0 | 0.00 | 0.00 | 0.00 | 45 | 1016.4 |
| 20260830180041 | 78 | 251 | 3.0 | 5.0 | 0.00 | 0.00 | 0.00 | 47 | 1016.3 |
| 20260830175539 | 80 | 264 | 3.0 | 8.0 | 0.00 | 0.00 | 0.00 | 44 | 1016.6 |
| 20260830175035 | 83 | 222 | 2.0 | 7.0 | 0.00 | 0.00 | 0.00 | 41 | 1016.5 |
| 20260830174530 | 83 | 168 | 4.0 | 9.0 | 0.00 | 0.00 | 0.00 | 40 | 1016.6 |
| 20260830174025 | 83 | 209 | 6.0 | 8.0 | 0.00 | 0.00 | 0.00 | 40 | 1016.5 |
| 20260830173521 | 81 | 247 | 3.0 | 9.0 | 0.00 | 0.00 | 0.00 | 44 | 1016.3 |
| 20260830173015 | 83 | 175 | 5.0 | 6.0 | 0.00 | 0.00 | 0.00 | 39 | 1016.6 |
| 20260830172513 | 83 | 200 | 2.0 | 6.0 | 0.00 | 0.00 | 0.00 | 43 | 1016.5 |
| 20260830172008 | 83 | 305 | 4.0 | 5.0 | 0.00 | 0.00 | 0.00 | 45 | 1016.4 |
| 20260830171504 | 83 | 207 | 3.0 | 5.0 | 0.00 | 0.00 | 0.00 | 42 | 1016.6 |
| 20260830171003 | 82 | 140 | 2.0 | 5.0 | 0.00 | 0.00 | 0.00 | 45 | 1016.6 |
| 20260830170458 | 82 | 307 | 2.0 | 5.0 | 0.00 | 0.00 | 0.00 | 45 | 1016.5 |
| 20260830165956 | 81 | 231 | 1.0 | 6.0 | 0.00 | 0.00 | 0.00 | 44 | 1016.4 |
| 20260830165453 | 81 | 57 | 0.0 | 5.0 | 0.00 | 0.00 | 0.00 | 45 | 1016.4 |
| 20260830164948 | 81 | 326 | 3.0 | 4.0 | 0.00 | 0.00 | 0.00 | 47 | 1016.6 |
| 20260830164444 | 80 | 202 | 0.0 | 6.0 | 0.00 | 0.00 | 0.00 | 47 | 1016.6 |
| 20260830163940 | 80 | 299 | 2.0 | 4.0 | 0.00 | 0.00 | 0.00 | 51 | 1016.4 |
| 20260830163436 | 78 | 289 | 3.0 | 4.0 | 0.00 | 0.00 | 0.00 | 51 | 1016.5 |
| 20260830162935 | 79 | 287 | 2.0 | 3.0 | 0.00 | 0.00 | 0.00 | 50 | 1016.5 |
| 20260830162432 | 80 | 103 | 0.0 | 2.0 | 0.00 | 0.00 | 0.00 | 48 | 1016.5 |
| 20260830161931 | 79 | 275 | 1.0 | 2.0 | 0.00 | 0.00 | 0.00 | 53 | 1016.6 |
| 20260830161426 | 78 | 258 | 2.0 | 3.0 | 0.00 | 0.00 | 0.00 | 53 | 1016.4 |
| 20260830160926 | 78 | 289 | 2.0 | 2.0 | 0.00 | 0.00 | 0.00 | 51 | 1016.5 |
| 20260830160422 | 77 | 277 | 2.0 | 2.0 | 0.00 | 0.00 | 0.00 | 54 | 1016.3 |
| 20260830155917 | 76 | 284 | 1.0 | 4.0 | 0.00 | 0.00 | 0.00 | 55 | 1016.5 |
| 20260830155414 | 77 | 275 | 1.0 | 2.0 | 0.00 | 0.00 | 0.00 | 53 | 1016.3 |
| 20260830154908 | 76 | 294 | 2.0 | 2.0 | 0.00 | 0.00 | 0.00 | 56 | 1016.4 |
| 20260830154404 | 75 | 243 | 1.0 | 3.0 | 0.00 | 0.00 | 0.00 | 57 | 1016.4 |
| 20260830153901 | 73 | 238 | 2.0 | 2.0 | 0.00 | 0.00 | 0.00 | 60 | 1016.4 |
| 20260830153356 | 72 | 30 | 3.0 | 5.0 | 0.00 | 0.00 | 0.00 | 61 | 1016.2 |
| 20260830152854 | 71 | 48 | 3.0 | 4.0 | 0.00 | 0.00 | 0.00 | 64 | 1016.4 |
| 20260830152349 | 70 | 92 | 3.0 | 5.0 | 0.00 | 0.00 | 0.00 | 66 | 1016.4 |
| 20260830151844 | 70 | 45 | 4.0 | 4.0 | 0.00 | 0.00 | 0.00 | 66 | 1016.3 |
| 20260830151343 | 69 | 128 | 4.0 | 5.0 | 0.00 | 0.00 | 0.00 | 67 | 1016.3 |
| 20260830150839 | 69 | 52 | 2.0 | 5.0 | 0.00 | 0.00 | 0.00 | 69 | 1016.3 |
| 20260830150338 | 68 | 104 | 5.0 | 7.0 | 0.00 | 0.00 | 0.00 | 71 | 1016.4 |
| 20260830145833 | 68 | 40 | 3.0 | 6.0 | 0.00 | 0.00 | 0.00 | 71 | 1016.4 |
| 20260830145328 | 67 | 42 | 5.0 | 6.0 | 0.00 | 0.00 | 0.00 | 71 | 1016.3 |
| 20260830144823 | 67 | 31 | 7.0 | 9.0 | 0.00 | 0.00 | 0.00 | 72 | 1016.4 |
| 20260830144319 | 67 | 98 | 2.0 | 7.0 | 0.00 | 0.00 | 0.00 | 72 | 1016.4 |
| 20260830143814 | 66 | 33 | 4.0 | 6.0 | 0.00 | 0.00 | 0.00 | 73 | 1016.5 |
| 20260830143309 | 65 | 81 | 4.0 | 8.0 | 0.00 | 0.00 | 0.00 | 74 | 1016.2 |
| 20260830142803 | 65 | 98 | 5.0 | 7.0 | 0.00 | 0.00 | 0.00 | 74 | 1016.4 |
| 20260830142258 | 65 | 38 | 2.0 | 8.0 | 0.00 | 0.00 | 0.00 | 75 | 1016.3 |
| 20260830141753 | 65 | 34 | 4.0 | 8.0 | 0.00 | 0.00 | 0.00 | 75 | 1016.4 |
| 20260830141248 | 64 | 52 | 2.0 | 8.0 | 0.00 | 0.00 | 0.00 | 77 | 1016.4 |
| 20260830140743 | 63 | 49 | 2.0 | 9.0 | 0.00 | 0.00 | 0.00 | 78 | 1016.2 |